Orbital Elements at Epoch 2459200.5 (2020-Dec-17.0) TDB
Reference: JPL 17 (heliocentric ecliptic J2000)
Element | Value | Uncertainty (1-sigma) | Units |
e | .1849050236535149 | 4.2102e-08 | |
a | 2.997009635383066 | 1.8365e-08 | au |
q | 2.442847497862748 | 1.3044e-07 | au |
i | 14.24790954288777 | 6.1387e-06 | deg |
node | 172.8331847997431 | 1.7369e-05 | deg |
peri | 271.0971088851757 | 2.4039e-05 | deg |
M | 280.6604230753222 | 1.8516e-05 | deg |
tp | 2459618.155317568060 (2022-Feb-07.65531757) | 9.9247e-05 | TDB |
period | 1895.093472293709 5.19 | 1.7419e-05 4.769e-08 | d yr |
n | .1899642446471399 | 1.7461e-09 | deg/d |
Q | 3.551171772903384 | 2.1761e-08 | au |
|
| | Orbit Determination Parameters
Additional Information
|